Regional Weather Roundup
Issued by NWS

Home | Current Version | Previous Version | Text Only | Print | Product List | Glossary Off
Versions: 1 2 3 4 5 6 7 8 9 10 11 12 13 14 15 16 17 18 19 20 21 22 23 24 25 26 27 28 29 30 31 32 33 34 35 36 37 38 39 40 41 42 43 44 45 46 47 48 49 50

000
ASUS43 KMKX 231021
RWRWI

WISCONSIN REGIONAL WEATHER ROUNDUP
NATIONAL WEATHER SERVICE MILWAUKEE/SULLIVAN WI
500 AM CDT TUE SEP 23 2014

NOTE: "FAIR" INDICATES FEW OR NO CLOUDS BELOW 12,000 FEET WITH NO
SIGNIFICANT WEATHER AND/OR OBSTRUCTIONS TO VISIBILITY.

WIZ001-002-006>008-014>016-023>028-231100-
NORTHWEST WISCONSIN

CITY           SKY/WX    TMP DP  RH WIND       PRES   REMARKS
SUPERIOR ARPT  CLEAR     44  44 100 S3        30.17R FOG
ASHLAND        CLEAR     50  48  93 S5        30.19R
HAYWARD        CLEAR     41  40  96 CALM      30.20S
SIREN          CLEAR     45  43  93 CALM      30.19R
CUMBERLAND     PTSUNNY   41  41 100 CALM      30.21R FOG
RICE LAKE        N/A     44  43  97 CALM      30.23R
CHETEK         SUNNY     44  44 100 E3        30.22R
LADYSMITH      CLEAR     46  45  97 E3        30.23S
EAU CLAIRE     FOG       44  43  96 CALM      30.21S VSB 1/4
MENOMONIE      FOG       45  44  98 E3        30.22R VSB 1/4
NEW RICHMOND   CLEAR     48  47  98 SE3       30.20R
OSCEOLA        CLEAR     47  47 100 E5        30.22R
$$

WIZ003>005-009-010-017-018-231100-
NORTH CENTRAL WISCONSIN

CITY           SKY/WX    TMP DP  RH WIND       PRES   REMARKS
MANITOWISH WTR FOG       40  40 100 CALM      30.22S VSB 1/2
ARBOR VITAE    CLEAR     43  41  93 CALM      30.22S FOG
WOODRUFF       CLEAR     43  41  93 CALM      30.22S FOG
RHINELANDER    FOG       44  43  96 CALM      30.24R VSB 1/4
EAGLE RIVER    MOCLDY    42  42 100 CALM      30.22R
LAND O LAKES   CLEAR     37  37 100 CALM      30.22S
PHILLIPS       CLEAR     42  42 100 CALM      30.23R
TOMAHAWK       CLEAR     39  38  97 CALM      30.24R
MEDFORD          N/A     42  42 100 CALM      30.23S FOG
MERRILL        FOG       38  38 100 CALM      30.24R VSB 1/2
$$

WIZ029-030-035-036-043>047-231100-
CENTRAL WISCONSIN

CITY           SKY/WX    TMP DP  RH WIND       PRES   REMARKS
WAUSAU         CLEAR     45  44  97 E3        30.23R
MOSINEE        SNOW      43  43 100 CALM      30.25S VSB 1/2
MARSHFIELD     FOG       46  44  93 CALM      30.24R VSB 1/2
STEVENS POINT  CLEAR     39  38  97 CALM      30.25S
WAUPACA        CLEAR     46  45  95 CALM      30.25R
WAUTOMA        CLEAR     41  40  96 CALM      30.26R
WISC RAPIDS    PTCLDY    43  42  97 CALM      30.26R FOG
CAMP DOUGLAS   FOG       41  41 100 E3        30.25R VSB 1/2
$$

WIZ011>013-019>022-031-037>040-048>050-231100-
NORTHEAST WISCONSIN

CITY           SKY/WX    TMP DP  RH WIND       PRES   REMARKS
ANTIGO         CLOUDY    42  42  99 CALM      30.25R FOG
SHAWANO        SUNNY     47  46  95 CALM      30.25R FOG
OCONTO         SUNNY     47  47 100 W6        30.22R
STURGEON BAY   CLEAR     52  48  87 SW6       30.23R
GREEN BAY      CLEAR     45  44  97 SW3       30.24R
MANITOWOC      CLEAR     53  51  93 W6        30.25R
APPLETON       CLEAR     50  48  93 W9        30.25R
CLINTONVILLE   PTCLDY    43  43 100 CALM      30.25R
OSHKOSH        CLEAR     52  49  89 SW6       30.25R
$$

WIZ032>034-041-042-053>061-231100-
SOUTHWEST WISCONSIN

CITY           SKY/WX    TMP DP  RH WIND       PRES   REMARKS
LA CROSSE      CLOUDY    51  50  96 SE6       30.24R FOG
SPARTA         CLOUDY    40  40 100 CALM      30.26R FOG
VIROQUA        SUNNY     51  50  96 CALM      30.26R
BOSCOBEL       FOG       46  45  96 CALM      30.28R VSB<1/4
PRAIRIE DU CHI CLEAR     46  45  94 CALM      30.26S
PLATTEVILLE    CLEAR     49  46  88 CALM      30.28S
$$

WIZ056-057-062-063-064-067-068-231100-
SOUTH CENTRAL WISCONSIN

CITY           SKY/WX    TMP DP  RH WIND       PRES   REMARKS
REEDSBURG      SUNNY     43  42  98 CALM      30.26S
BARABOO/DELLS  CLEAR     45  43  91 SW3       30.26R
LONE ROCK      FOG       46  42  86 CALM      30.27R VSB 1/2
MINERAL POINT  CLEAR     50  46  87 S3        30.27S
MADISON        CLEAR     46  43  89 CALM      30.27R
MIDDLETON      SUNNY     43  43  99 CALM      30.28R
WATERTOWN      CLEAR     42  42 100 CALM      30.27R
MONROE         CLEAR     50  45  81 SW8       30.27R
JANESVILLE     CLEAR     46  45  93 CALM      30.28S
$$

WIZ051-052-058>065-066-070>072-231100-
SOUTHEAST WISCONSIN

CITY           SKY/WX    TMP DP  RH WIND       PRES   REMARKS
MILWAUKEE      CLEAR     54  45  71 W5        30.28R
WAUKESHA       CLEAR     45  43  93 CALM      30.29R
MILWAUKEE/TIMM CLEAR     46  45  93 CALM      30.28R
RACINE         CLEAR     52  45  77 W7        30.29R
BURLINGTON       N/A     40  40 100 CALM      30.28R FOG
KENOSHA        CLEAR     46  45  96 SW5       30.28R
FOND DU LAC    CLEAR     48  46  93 S3        30.26R
SHEBOYGAN      CLEAR     46  45  96 SW3       30.26R
WEST BEND      CLEAR     43  41  93 CALM      30.27R
JUNEAU         CLEAR     46  45  96 CALM      30.27S
$$

LSZ147-162-231100-
LAKE SUPERIOR

STATION/POSITION TIME  TEMP    WIND        PRES    WAVE
                       AIR SEA DIR/SP/G            HT/PER
                 (UTC) (F)     (DEG/KT/KT) (MB)    (FT/S)
W MID LAKE BUOY  0950   52 48  240/ 12/ 14 1020.8R   2/ 4
DEVILS ISLAND    1000   56     230/ 12/ 13 1021.6R
PORT WING        0900   53     150/  2/  6 1021.7R
SAXON HARBOR     0900   54     190/  5/  7 1021.7S
$$

LMZ867-665-643>646-231100-
LAKE MICHIGAN

STATION/POSITION TIME  TEMP    WIND        PRES    WAVE
                       AIR SEA DIR/SP/G            HT/PER
                 (UTC) (F)     (DEG/KT/KT) (MB)    (FT/S)
CHAMBERS ISLAND  0900   55     210/  4/  9 1022.4S
S GREEN BAY BUOY 1000   57                 1024.4R
N MID LAKE BUOY  0950   57 57  240/ 12/ 14 1022.2R   2/ 5
NORTHPORT PIER   1000   57     250/  3/ 11 1022.4R
SISTER BAY       0942          270/  7/  8   N/A
KEWAUNEE LAKESHO 1000   51     300/  6/  7 1022.7R
SHEBOYGAN LAKESH 1000   53 54  260/ 10/ 10 1024.8R
PORT WASHINGTON  0940   54     280/  5/  7 1025.1R
ATWATER BUOY     1000   57     240/ 12/ 14 1025.7R
S MID LAKE BUOY  0950   61 62  230/ 12/ 14 1025.2R   2/ 4
KENOSHA   LAKESH 1000   54     250/  9/ 11 1025.1R
$$

TC  - TEMPERATURE IN CELSIUS
VSB - VISIBILITY IN STATUTE MILES
WCI - WIND CHILL INDEX
HX  - HEAT INDEX




USA.gov is the U.S. government's official web portal to all federal, state and local government web resources and services.